FW3054 Weather Reports


Display with metric or nautical units.
time (UTC)temp
F
wind
direction
speed
MPH
gust
MPH
rain 1hr
in
rain 24hr
in
rain mn
in
humidity
%
barometer
mb
20260503223522 63 0.0 0.0 0.00 0.00 0.00 41 1016.2
20260503222520 63 23 1.0 2.0 0.00 0.00 0.00 39 1016.2
20260503221522 64 0.0 1.0 0.00 0.00 0.00 39 1016.3
20260503220520 64 0 1.0 4.0 0.00 0.00 0.00 37 1016.3
20260503215522 64 0.0 2.0 0.00 0.00 0.00 39 1016.4
20260503214522 65 0.0 1.0 0.00 0.00 0.00 38 1016.4
20260503213522 65 0.0 1.0 0.00 0.00 0.00 37 1016.5
20260503212522 65 23 1.0 2.0 0.00 0.00 0.00 37 1016.5
20260503211522 66 0 1.0 4.0 0.00 0.00 0.00 35 1016.7
20260503210522 66 0 1.0 4.0 0.00 0.00 0.00 34 1016.9
20260503205522 68 0 2.0 4.0 0.00 0.00 0.00 33 1017.1
20260503204547 69 23 2.0 4.0 0.00 0.00 0.00 32 1017.4
20260503203522 69 135 1.0 2.0 0.00 0.00 0.00 32 1017.5
20260503202522 69 0 1.0 3.0 0.00 0.00 0.00 33 1017.5
20260503201613 69 113 1.0 2.0 0.00 0.00 0.00 34 1017.8
20260503200522 69 0.0 1.0 0.00 0.00 0.00 34 1018.0
20260503195547 69 135 1.0 2.0 0.00 0.00 0.00 33 1018.3
20260503194547 68 0.0 1.0 0.00 0.00 0.00 34 1018.2
20260503193547 67 0.0 1.0 0.00 0.00 0.00 36 1018.2
20260503192522 67 23 2.0 4.0 0.00 0.00 0.00 33 1018.4
20260503191547 67 23 1.0 3.0 0.00 0.00 0.00 35 1018.6
20260503190523 67 0 1.0 4.0 0.00 0.00 0.00 35 1018.7
20260503185522 66 23 1.0 6.0 0.00 0.00 0.00 36 1018.7
20260503184522 67 23 1.0 2.0 0.00 0.00 0.00 34 1018.9
20260503183522 67 135 1.0 2.0 0.00 0.00 0.00 36 1019.0
20260503182522 64 0 1.0 2.0 0.00 0.00 0.00 37 1018.9
20260503181522 64 23 3.0 7.0 0.00 0.00 0.00 37 1019.0
20260503180522 64 23 1.0 4.0 0.00 0.00 0.00 37 1019.2
20260503175522 63 23 1.0 4.0 0.00 0.00 0.00 37 1019.4
20260503174547 62 23 2.0 5.0 0.00 0.00 0.00 37 1019.3
20260503173522 62 23 2.0 6.0 0.00 0.00 0.00 40 1019.4
20260503172522 62 0 3.0 5.0 0.00 0.00 0.00 38 1019.6
20260503171547 64 23 1.0 4.0 0.00 0.00 0.00 38 1019.9
20260503170547 63 23 1.0 3.0 0.00 0.00 0.00 40 1020.1
20260503150522 53 0.0 1.0 0.00 0.00 0.00 52 1020.9
20260503130521 45 0.0 2.0 0.00 0.00 0.00 72 1020.4
20260503110546 39 0.0 0.0 0.00 0.00 0.00 86 1018.9
20260503081546 40 0.0 0.0 0.00 0.00 0.00 83 1017.3
20260503080521 40 0.0 0.0 0.00 0.00 0.00 82 1017.4
20260503072521 41 0.0 1.0 0.00 0.00 0.00 80 1017.0
20260503071521 41 0.0 0.0 0.00 0.00 0.00 80 1017.1
20260503070521 41 0.0 0.0 0.00 0.00 0.00 80 1016.9
20260503054521 43 0.0 0.0 0.00 0.00 0.00 75 1016.7
20260503053546 43 0.0 1.0 0.00 0.00 0.00 75 1016.7
20260503052546 43 0.0 0.0 0.00 0.00 0.00 74 1016.9
20260503051546 43 0.0 1.0 0.00 0.00 0.00 74 1016.7
20260503050546 43 0.0 0.0 0.00 0.00 0.00 73 1016.5
20260503045520 44 0.0 1.0 0.00 0.00 0.00 73 1016.6
20260503044520 44 0.0 0.0 0.00 0.00 0.00 72 1016.6
20260503043520 44 0.0 1.0 0.00 0.00 0.00 72 1016.3
20260503042521 44 0.0 0.0 0.00 0.00 0.00 72 1016.4
20260503041520 44 0.0 1.0 0.00 0.00 0.00 71 1016.3
20260503040520 45 0.0 0.0 0.00 0.00 0.00 70 1016.0
20260503035521 45 0.0 1.0 0.00 0.00 0.00 69 1015.8
20260503034521 46 0.0 1.0 0.00 0.00 0.00 68 1015.7
20260503033520 46 0.0 1.0 0.00 0.00 0.00 66 1015.5
20260503032521 46 0.0 0.0 0.00 0.00 0.00 65 1015.5
20260503031521 47 0.0 0.0 0.00 0.00 0.00 64 1015.3
20260503030521 47 0.0 0.0 0.00 0.00 0.00 63 1015.4
20260503025521 47 0.0 0.0 0.00 0.00 0.00 62 1015.4
20260503024520 48 0.0 0.0 0.00 0.00 0.00 62 1015.4
20260503023520 48 0.0 0.0 0.00 0.00 0.00 61 1015.3
20260503022520 49 0.0 0.0 0.00 0.00 0.00 60 1015.6
20260503021521 49 0.0 1.0 0.00 0.00 0.00 60 1015.5
20260503020521 50 0.0 0.0 0.00 0.00 0.00 57 1015.4
20260503015520 51 0.0 0.0 0.00 0.00 0.00 56 1015.1
20260503014521 51 0.0 3.0 0.00 0.00 0.00 53 1014.9
20260503013520 51 23 1.0 3.0 0.00 0.00 0.00 52 1014.8
20260503012521 51 0.0 3.0 0.00 0.00 0.00 53 1014.8
20260503011520 51 0 1.0 4.0 0.00 0.00 0.00 51 1014.6
20260503010521 52 23 1.0 2.0 0.00 0.00 0.00 51 1014.4
20260503005520 52 0.0 3.0 0.00 0.00 0.00 52 1014.2
20260503004520 52 23 1.0 3.0 0.00 0.00 0.00 51 1014.3
20260503003520 52 0.0 1.0 0.00 0.00 0.00 50 1014.2
20260503002520 53 0.0 3.0 0.00 0.00 0.00 52 1014.0
20260503001520 54 0.0 2.0 0.00 0.00 0.00 47 1013.9
20260503000610 54 45 1.0 3.0 0.00 0.00 0.00 45 1013.9
20260502235545 55 23 1.0 3.0 0.00 0.00 0.00 44 1013.6
20260502234522 55 23 2.0 6.0 0.00 0.00 0.00 43 1013.4
20260502233522 56 23 1.0 7.0 0.00 0.00 0.00 41 1013.5
20260502232522 56 23 1.0 3.0 0.00 0.00 0.00 41 1013.4
20260502231522 56 23 1.0 4.0 0.00 0.00 0.00 40 1013.3
20260502230612 56 0 2.0 7.0 0.00 0.00 0.00 39 1013.2
20260502225522 57 23 1.0 5.0 0.00 0.00 0.00 39 1013.3
20260502224547 56 23 1.0 5.0 0.00 0.00 0.00 42 1013.2